Flag for U.S.A. Weather past 2 weeks in Bristol, Tennessee, U.S.A.

Now
37 °F

Clear.


Feels Like: 37 °F
Forecast: 38 / 64 °F
Wind: No wind

Location: Abingdon-Southwest Abingdon

Current Time: Oct 25, 2014 at 6:34:25 AM

Latest Report: Oct 25, 2014 at 6:15 AM


Visibility: 10 mi

Pressure: 30.09 "Hg

Humidity: 97%

Dew point: 36 °F

Location of BristolLocation

Historic Weather in Bristol — Graph

°F

Bristol temperature yesterday

Maximum temperature yesterday: 64 °F (at 4:35 PM)
Minimum temperature yesterday: 37 °F (at 4:15 AM)
Average temperature yesterday: 48 °F

Past Weeks' High & Low Weather Summary

 TemperatureHumidityPressure
High77 °F (Oct 13, 1:15 PM)100% (Oct 10, 5:15 AM)30.23 "Hg (Oct 10, 5:15 AM)
Low37 °F (Oct 24, 4:15 AM)33% (Oct 24, 4:55 PM)29.76 "Hg (Oct 14, 4:55 PM)
Average56 °F81%30.03 "Hg
* Reported Oct 10 5:15 AM — Oct 25 5:15 AM, Bristol, Weather by CustomWeather, © 2014

Note: Actual official high and low records may vary slightly from our data, if they occured in-between our weather recording intervals... More about our weather records

Advertising

Bristol weather history for previous 24 hours

 ConditionsComfort  
Time TempWeatherWind HumidityBarometerVisibility
5:15 AM
Oct 25
38 °FClear.No wind94%30.07 "Hg7 mi
4:55 AM38 °FClear.No wind97%30.07 "Hg10 mi
4:35 AM38 °FClear.No wind95%30.07 "Hg10 mi
4:15 AM38 °FClear.No wind94%30.07 "Hg10 mi
3:55 AM38 °FClear.No wind94%30.08 "Hg10 mi
3:35 AM39 °FClear.No wind94%30.08 "Hg10 mi
3:15 AM38 °FClear.No wind93%30.08 "Hg10 mi
2:55 AM39 °FClear.No wind94%30.09 "Hg10 mi
2:15 AM40 °FClear.No wind91%30.08 "Hg10 mi
1:55 AM41 °FClear.No wind90%30.09 "Hg10 mi
1:35 AM41 °FClear.No wind93%30.09 "Hg10 mi
1:15 AM41 °FClear.No wind92%30.08 "Hg10 mi
12:55 AM41 °FClear.No wind89%30.08 "Hg10 mi
12:35 AM42 °FClear.No wind88%30.09 "Hg10 mi
12:15 AM43 °FClear.No wind88%30.09 "Hg10 mi
11:55 PM
Oct 24
43 °FClear.No wind86%30.09 "Hg10 mi
11:15 PM43 °FClear.No wind86%30.08 "Hg10 mi
10:55 PM44 °FClear.No wind87%30.07 "Hg10 mi
10:15 PM45 °FClear.No wind83%30.08 "Hg10 mi
9:55 PM46 °FClear.No wind81%30.07 "Hg10 mi
9:35 PM47 °FClear.No wind79%30.08 "Hg10 mi
9:15 PM47 °FClear.No wind79%30.07 "Hg10 mi
8:55 PM47 °FClear.No wind79%30.08 "Hg10 mi
8:35 PM49 °FClear.No wind73%30.07 "Hg10 mi
8:15 PM49 °FClear.No wind71%30.07 "Hg10 mi
7:55 PM50 °FClear.No wind69%30.07 "Hg10 mi
7:15 PM53 °FSunny.No wind62%30.06 "Hg10 mi
6:55 PM55 °FSunny.No wind56%30.06 "Hg10 mi
6:35 PM59 °FSunny.No wind45%30.05 "Hg10 mi
6:15 PM62 °FSunny.No wind37%30.05 "Hg10 mi
5:55 PM63 °FSunny.No wind37%30.04 "Hg10 mi
5:15 PM64 °FSunny.3 mph37%30.04 "Hg10 mi
4:55 PM64 °FSunny.No wind33%30.05 "Hg10 mi
4:35 PM64 °FSunny.6 mph34%30.05 "Hg10 mi
4:15 PM64 °FSunny.3 mph42%30.05 "Hg10 mi
3:55 PM63 °FSunny.5 mph43%30.05 "Hg10 mi
3:35 PM63 °FSunny.3 mph49%30.05 "Hg10 mi
3:15 PM61 °FSunny.No wind50%30.06 "Hg10 mi
2:55 PM62 °FSunny.No wind48%30.06 "Hg10 mi
2:35 PM62 °FSunny.No wind51%30.07 "Hg10 mi
2:15 PM60 °FSunny.No wind54%30.07 "Hg10 mi
1:55 PM59 °FSunny.No wind55%30.08 "Hg10 mi
1:35 PM60 °FSunny.No wind60%30.09 "Hg10 mi
1:15 PM58 °FSunny.No wind60%30.09 "Hg10 mi
12:55 PM56 °FSunny.No wind64%30.10 "Hg10 mi
12:15 PM54 °FSunny.5 mph68%30.11 "Hg10 mi
11:55 AM54 °FSunny.3 mph70%30.11 "Hg10 mi
11:35 AM53 °FSunny.No wind70%30.12 "Hg10 mi
11:15 AM53 °FSunny.3 mph70%30.12 "Hg10 mi
10:55 AM51 °FSunny.3 mph78%30.13 "Hg10 mi
10:35 AM50 °FSunny.3 mph80%30.13 "Hg10 mi
10:15 AM48 °FSunny.5 mph83%30.13 "Hg10 mi
9:55 AM46 °FSunny.No wind90%30.14 "Hg10 mi
9:15 AM43 °FSunny.No wind93%30.14 "Hg10 mi
8:55 AM42 °FFog.No wind98%30.12 "Hg5 mi
8:35 AM41 °FFog.3 mph97%30.11 "Hg5 mi
8:15 AM40 °FFog.No wind97%30.11 "Hg5 mi
7:55 AM40 °FFog.3 mph97%30.11 "Hg5 mi
7:35 AM40 °FClear.No wind98%30.11 "Hg7 mi
7:15 AM39 °FClear.No wind97%30.12 "Hg7 mi
6:55 AM39 °FClear.No wind97%30.12 "Hg7 mi
6:15 AM39 °FClear.No wind98%30.10 "Hg7 mi
Weather by CustomWeather, © 2014

See weather overviewHow to use our weather pages